TimeMDT,TemperatureF,Dew PointF,Humidity,Sea Level PressureIn,VisibilityMPH,Wind Direction,Wind SpeedMPH,Gust SpeedMPH,PrecipitationIn,Events,Conditions,WindDirDegrees,DateUTC
12:15 AM,75.7,31.8,20,29.98,10.0,West,10.4,-,N/A,,Clear,270,2013-06-05 06:15:00
12:35 AM,77.0,32.0,19,29.98,10.0,West,11.5,-,N/A,,Clear,260,2013-06-05 06:35:00
12:55 AM,76.1,32.0,20,29.98,10.0,West,11.5,-,N/A,,Clear,270,2013-06-05 06:55:00
1:15 AM,74.5,31.8,21,29.98,10.0,West,10.4,-,N/A,,Clear,270,2013-06-05 07:15:00
1:35 AM,73.0,31.1,21,29.97,10.0,WNW,6.9,-,N/A,,Clear,300,2013-06-05 07:35:00
1:55 AM,72.5,30.7,21,29.97,10.0,WNW,10.4,-,N/A,,Clear,290,2013-06-05 07:55:00
2:15 AM,72.0,30.0,21,29.97,10.0,West,11.5,-,N/A,,Clear,260,2013-06-05 08:15:00
2:35 AM,71.1,29.7,22,29.97,10.0,West,10.4,-,N/A,,Clear,260,2013-06-05 08:35:00
2:55 AM,71.2,29.3,21,29.97,10.0,WSW,11.5,-,N/A,,Clear,250,2013-06-05 08:55:00
3:15 AM,71.4,29.3,21,29.97,10.0,West,10.4,-,N/A,,Clear,260,2013-06-05 09:15:00
3:35 AM,69.1,28.9,22,29.97,10.0,West,11.5,-,N/A,,Clear,280,2013-06-05 09:35:00
3:55 AM,68.0,28.8,23,29.97,10.0,West,11.5,-,N/A,,Clear,280,2013-06-05 09:55:00
4:15 AM,66.9,28.4,24,29.97,10.0,WNW,8.1,-,N/A,,Clear,290,2013-06-05 10:15:00
4:35 AM,68.7,28.6,22,29.98,10.0,NW,8.1,-,N/A,,Clear,310,2013-06-05 10:35:00
4:55 AM,68.0,28.2,23,29.98,10.0,North,5.8,-,N/A,,Clear,10,2013-06-05 10:55:00
5:15 AM,67.6,28.0,23,29.98,10.0,NNE,3.5,-,N/A,,Clear,20,2013-06-05 11:15:00
5:35 AM,64.2,27.9,25,29.99,10.0,NE,3.5,-,N/A,,Clear,50,2013-06-05 11:35:00
5:55 AM,63.5,27.7,26,30.00,10.0,WSW,5.8,-,N/A,,Clear,250,2013-06-05 11:55:00
6:15 AM,63.5,27.5,26,30.00,10.0,West,6.9,-,N/A,,Clear,260,2013-06-05 12:15:00
6:35 AM,63.9,28.0,26,30.01,10.0,West,3.5,-,N/A,,Clear,260,2013-06-05 12:35:00
6:55 AM,66.2,28.4,24,30.02,10.0,NW,3.5,-,N/A,,Clear,310,2013-06-05 12:55:00
7:15 AM,69.8,29.1,22,30.03,10.0,Calm,Calm,-,N/A,,Clear,0,2013-06-05 13:15:00
7:35 AM,74.3,30.2,20,30.03,10.0,Calm,Calm,-,N/A,,Clear,0,2013-06-05 13:35:00
7:55 AM,76.8,30.4,18,30.03,10.0,West,3.5,-,N/A,,Clear,270,2013-06-05 13:55:00
8:15 AM,78.8,30.2,17,30.04,10.0,Calm,Calm,-,N/A,,Clear,0,2013-06-05 14:15:00
8:35 AM,81.5,29.3,15,30.04,10.0,Calm,Calm,-,N/A,,Clear,0,2013-06-05 14:35:00
8:55 AM,82.8,29.1,14,30.04,10.0,Calm,Calm,-,N/A,,Clear,0,2013-06-05 14:55:00
9:15 AM,83.5,28.9,14,30.04,10.0,Calm,Calm,-,N/A,,Clear,0,2013-06-05 15:15:00
9:35 AM,84.9,29.7,14,30.04,10.0,Calm,Calm,-,N/A,,Clear,0,2013-06-05 15:35:00
9:55 AM,85.8,29.3,13,30.05,10.0,West,4.6,-,N/A,,Clear,260,2013-06-05 15:55:00
10:15 AM,87.1,28.8,12,30.04,10.0,West,8.1,-,N/A,,Clear,260,2013-06-05 16:15:00
10:35 AM,88.5,26.4,11,30.05,10.0,West,6.9,17.3,N/A,,Clear,270,2013-06-05 16:35:00
10:55 AM,88.9,24.8,10,30.05,10.0,West,11.5,17.3,N/A,,Clear,270,2013-06-05 16:55:00
11:15 AM,88.0,24.3,10,30.04,10.0,SE,3.5,9.2,N/A,,Clear,130,2013-06-05 17:15:00
11:35 AM,90.5,24.8,9,30.04,10.0,West,13.8,18.4,N/A,,Clear,270,2013-06-05 17:35:00
11:55 AM,90.5,21.6,8,30.04,10.0,WSW,13.8,18.4,N/A,,Clear,240,2013-06-05 17:55:00
12:15 PM,90.9,21.2,8,30.03,10.0,WSW,11.5,20.7,N/A,,Clear,250,2013-06-05 18:15:00
12:35 PM,90.5,23.4,9,30.03,10.0,West,5.8,-,N/A,,Clear,280,2013-06-05 18:35:00
12:55 PM,92.8,20.3,7,30.02,10.0,West,11.5,26.5,N/A,,Clear,270,2013-06-05 18:55:00
1:15 PM,92.3,21.9,8,30.01,10.0,WSW,10.4,20.7,N/A,,Clear,250,2013-06-05 19:15:00
1:35 PM,93.0,21.9,8,30.01,10.0,WSW,15.0,20.7,N/A,,Clear,240,2013-06-05 19:35:00
1:55 PM,93.7,22.8,8,30.00,10.0,WSW,6.9,25.3,N/A,,Clear,240,2013-06-05 19:55:00
2:15 PM,91.6,21.2,8,29.99,10.0,SSW,11.5,17.3,N/A,,Clear,210,2013-06-05 20:15:00
2:35 PM,93.7,21.2,7,29.98,10.0,SSW,12.7,16.1,N/A,,Clear,210,2013-06-05 20:35:00
2:55 PM,94.6,19.2,6,29.98,10.0,West,11.5,29.9,N/A,,Clear,270,2013-06-05 20:55:00
3:15 PM,93.6,17.2,6,29.97,10.0,West,18.4,26.5,N/A,,Clear,270,2013-06-05 21:15:00
3:35 PM,94.1,20.1,7,29.96,10.0,West,18.4,23.0,N/A,,Clear,270,2013-06-05 21:35:00
3:55 PM,94.5,19.9,7,29.95,4.0,WSW,13.8,25.3,N/A,,Haze,240,2013-06-05 21:55:00
4:15 PM,95.0,14.5,5,29.95,10.0,WSW,20.7,26.5,N/A,,Clear,250,2013-06-05 22:15:00
4:35 PM,94.5,16.3,6,29.94,10.0,West,23.0,29.9,N/A,,Clear,260,2013-06-05 22:35:00
4:55 PM,95.0,13.6,5,29.93,10.0,WSW,20.7,27.6,N/A,,Clear,250,2013-06-05 22:55:00
5:15 PM,94.5,18.1,6,29.92,10.0,WSW,20.7,31.1,N/A,,Clear,250,2013-06-05 23:15:00
5:35 PM,94.5,15.4,6,29.91,10.0,WSW,19.6,24.2,N/A,,Clear,250,2013-06-05 23:35:00
5:55 PM,93.9,17.4,6,29.90,10.0,WSW,23.0,28.8,N/A,,Clear,250,2013-06-05 23:55:00
6:15 PM,93.4,14.9,6,29.90,10.0,WSW,19.6,26.5,N/A,,Clear,240,2013-06-06 00:15:00
6:35 PM,92.8,16.2,6,29.90,10.0,WSW,19.6,26.5,N/A,,Clear,250,2013-06-06 00:35:00
6:55 PM,92.3,14.7,6,29.90,10.0,West,18.4,25.3,N/A,,Clear,260,2013-06-06 00:55:00
7:15 PM,91.4,15.1,6,29.90,10.0,West,17.3,25.3,N/A,,Clear,260,2013-06-06 01:15:00
7:35 PM,90.5,14.7,6,29.90,10.0,WSW,16.1,-,N/A,,Clear,250,2013-06-06 01:35:00
7:55 PM,89.1,15.8,7,29.91,10.0,West,17.3,21.9,N/A,,Clear,260,2013-06-06 01:55:00
8:15 PM,87.3,15.6,7,29.91,10.0,West,13.8,-,N/A,,Clear,270,2013-06-06 02:15:00
8:35 PM,85.5,15.8,8,29.92,10.0,West,10.4,-,N/A,,Clear,270,2013-06-06 02:35:00
8:55 PM,83.7,16.3,8,29.93,10.0,West,9.2,-,N/A,,Clear,270,2013-06-06 02:55:00
9:15 PM,80.6,15.6,9,29.93,10.0,West,8.1,-,N/A,,Clear,260,2013-06-06 03:15:00
9:35 PM,79.7,15.8,9,29.94,10.0,West,9.2,-,N/A,,Clear,260,2013-06-06 03:35:00
9:55 PM,78.8,15.4,9,29.94,10.0,West,10.4,-,N/A,,Clear,260,2013-06-06 03:55:00
10:15 PM,77.9,14.7,9,29.95,10.0,West,11.5,-,N/A,,Clear,280,2013-06-06 04:15:00
10:35 PM,80.2,14.0,8,29.95,10.0,WNW,5.8,-,N/A,,Clear,300,2013-06-06 04:35:00
10:55 PM,76.3,13.8,9,29.95,10.0,WNW,5.8,-,N/A,,Clear,290,2013-06-06 04:55:00
11:15 PM,73.9,13.5,10,29.95,10.0,WNW,4.6,-,N/A,,Clear,290,2013-06-06 05:15:00
11:35 PM,74.7,13.3,10,29.95,10.0,West,5.8,-,N/A,,Clear,270,2013-06-06 05:35:00
11:55 PM,74.5,13.1,10,29.95,10.0,NW,5.8,-,N/A,,Clear,310,2013-06-06 05:55:00